Regional Weather Roundup
Issued by NWS Lake Charles, LA

Current Version | Previous Version | Text Only | Print | Product List | Glossary On
Versions: 1 2 3 4 5 6 7 8 9 10 11 12 13 14 15 16 17 18 19 20 21 22 23 24 25 26 27 28 29 30 31 32 33 34 35 36 37 38 39 40 41 42 43 44 45 46 47 48 49 50
000
ASUS44 KLCH 302110
RWRLCH
RWRLCH
REGIONAL WEATHER ROUNDUP
NATIONAL WEATHER SERVICE LAKE CHARLES LA
400 PM CDT WED JUL 30 2014

Note: "fair" indicates few or no clouds below 12,000 feet with no
significant weather and/or obstructions to visibility.


ACROSS SOUTHEAST TEXAS

CITY           SKY/WX    TMP DP  RH WIND       PRES   REMARKS
BEAUMONT       MOSUNNY   90  68  48 VRB7      30.00F
BEAUMONT CITY    N/A     90  71  53 SE5       30.00F
ORANGE         CLOUDY    89  67  49 S3        30.02F
JASPER         MOSUNNY   88  67  48 CALM      30.04F
$$

ACROSS CENTRAL LOUISIANA

CITY           SKY/WX    TMP DP  RH WIND       PRES   REMARKS
LEESVILLE      SUNNY     89  62  40 N5        30.02F
FULLERTON        N/A     91  60  35 VRB3      30.00F
ALEXANDRIA INT SUNNY     90  61  37 NE8       30.01F
ESLER FIELD    SUNNY     89  64  43 E7        30.03F
DERIDDER         N/A     88  66  47 CALM      30.04F
OAKDALE        CLEAR     88  62  41 NE5       30.02F
OPELOUSAS        N/A     87  63  45 N5        30.02F
$$

ACROSS SOUTHWEST AND SOUTH CENTRAL LOUISIANA

CITY           SKY/WX    TMP DP  RH WIND       PRES   REMARKS
SULPHUR        MOCLDY    91  66  43 CALM      30.01F
LAKE CHARLES   MOSUNNY   87  66  49 S6        30.00F
CHENNAULT INT  MOSUNNY   90  64  43 N5        30.02F
CAMERON PHI    CLEAR     86  70  58 S7        30.01F
DEQUINCY       MOCLDY    89  67  48 N3        30.01F
JENNINGS         N/A     87  67  52 NW5       30.02S
LAFAYETTE      SUNNY     90  65  43 VRB3      30.01F
NEW IBERIA     SUNNY     90  66  45 N9        30.02F
ABBEVILLE        N/A     88  67  50 NW7       30.01F
PATTERSON      SUNNY     88  68  51 N9        30.05F
SALT POINT       N/A     90  71  53 VRB6      30.00F
$$

SELECTED SITES ACROSS THE REGION

CITY           SKY/WX    TMP DP  RH WIND       PRES   REMARKS
HOUSTON BUSH   PTSUNNY   92  70  48 SE9       29.97F
HOUSTON HOBBY  PTSUNNY   91  72  53 E7G18     29.97F
GALVESTON      MOSUNNY   89  74  60 SE13      30.00F
COLLEGE STAT   MOSUNNY   91  71  51 SE10      29.97F
CONROE         MOSUNNY   90  73  57 E7        29.99F
HUNTSVILLE     MOSUNNY   91  69  48 S8        29.99F
LUFKIN         SUNNY     92  67  43 E3        30.01F
SHREVEPORT     CLOUDY    87  60  40 E6        30.03F
MONROE         MOSUNNY   88  59  37 NE7       30.06F
NATCHEZ MS     SUNNY     82  63  51 NW9       30.05F
BATON ROUGE    SUNNY     87  63  44 NE5       30.01F
N.O. INTL ARPT MOSUNNY   87  61  41 N9        30.01F
SLIDELL        SUNNY     86  60  41 N8        30.00F
$$

MARINE REPORTS

STATION/POSITION TIME  TEMP    WIND        PRES    VSBY  WAVE
                       AIR SEA DIR/SP/G                  HT/PER
                 (UTC) (F)     (DEG/KT/KT) (MB)    (MI)  (FT/S)
BUOY 30 S HIGH I NOT AVBL
SEA RIM ST PARK  2100   84     140/  8/ 10 1016.6F
PORT ARTHUR      2100      87  160/  6/  8 1016.2F
SABINE PASS N    2100   84 86  160/  8/ 10 1016.3F
TEXAS POINT      2100   82 86  130/  7/  8 1016.5F
CALCASIEU PASS   2100   84 88  210/  6/  7 1017.3F
LK CHARLES BEACH 2100   87 85              1016.9F
MARSH ISLAND     NOT AVBL
FRESH WATER LOCK 2100   84 87  170/  6/  8 1016.2F
AMERADA PASS     2100   85 88  250/  3/  6 1016.1F
$$


USA.gov is the U.S. government's official web portal to all federal, state and local government web resources and services.